Regional Weather Roundup
Issued by NWS Charleston, SC

Current Version | Previous Version | Text Only | Print | Product List | Glossary Off
Versions: 1 2 3 4 5 6 7 8 9 10 11 12 13 14 15 16 17 18 19 20 21 22 23 24 25 26 27 28 29 30 31 32 33 34 35 36 37 38 39 40 41 42 43 44 45 46 47 48 49 50

000
ASUS42 KCHS 240427
RWRCHS

REGIONAL WEATHER ROUNDUP
NATIONAL WEATHER SERVICE CHARLESTON SC
1200 AM EDT TUE OCT 24 2017

NOTE: "FAIR" INDICATES FEW OR NO CLOUDS BELOW 12,000 FEET WITH NO
SIGNIFICANT WEATHER AND/OR OBSTRUCTIONS TO VISIBILITY.

NOT ALL STATIONS ARE QUALITY CONTROLLED. USE DATA WITH CAUTION...
ESPECIALLY DEWPOINT OBSERVATIONS.

SCZ027-030-031-034>040-042>050-240500-
...SOUTHEAST SOUTH CAROLINA...

CITY           SKY/WX    TMP DP  RH WIND       PRES   REMARKS
N CHARLESTON   MOCLDY    70  66  87 W6        29.88S
WATERFRONT PRK NOT AVBL
JOHNS ISLAND   MOCLDY    72  72 100 W9        29.89R
PINOPOLIS        N/A     70  68  94 W7        29.80F
MONCKS CORNER  FAIR      66  64  94 CALM      29.88F
SUMMERVILLE    CLOUDY    68  64  88 SW3       29.89F
BEAUFORT MCAS  CLEAR     69  69 100 MISG      29.89F
BEAUFORT ARPT  FAIR      70  64  83 W3        29.89S
HILTON HEAD IS PTCLDY    72  68  88 VRB3      29.90S
WALTERBORO     MOCLDY    68  66  94 W7        29.89F
ALLENDALE        N/A     64  64 100 CALM        N/A

...SOUTHERN MIDLANDS AND PEE DEE...

CITY           SKY/WX    TMP DP  RH WIND       PRES   REMARKS
GEORGETOWN     CLOUDY    68  68 100 W9G15     29.89S
KINGSTREE      FAIR      64  63  94 CALM      29.88S
ORANGEBURG     CLEAR     66  64  93 W7        29.89F
BARNWELL         N/A     64  63  94 W5        29.89F
AIKEN          FAIR      57  57 100 SW6       29.93F
MANNING        FAIR      64  55  72 MISG      29.88S
COLUMBIA       PTCLDY    63  63 100 W7        29.87F
SUMTER         CLEAR     65  63  94 SW9       29.85F
FLORENCE       CLEAR     63  63 100 SW5       29.87S
MYRTLE BEACH   LGT RAIN  70  67  90 W14G22    29.89S
N MYRTLE BEACH LGT RAIN  71  69  93 W9G21     29.87R FOG

$$

GAZ063-065-086>088-099>101-113>116-118-119-134>141-150-240500-
...SOUTHEAST GEORGIA...

CITY           SKY/WX    TMP DP  RH WIND       PRES   REMARKS
SAVANNAH ARPT  PTCLDY    70  68  93 W7        29.90F
HUNTER AAF     CLEAR     70  67  91 W3        29.87F
FORT STEWART   CLEAR     68  64  86 NW6       29.89F
STATESBORO     CLEAR     64  57  78 NW7       29.91F
SYLVANIA       CLEAR     65  64  96 NW5       29.91F
CLAXTON        FAIR      65  60  82 W7        29.92S

...CSRA...CENTRAL AND FAR SOUTHEAST GEORGIA...

CITY           SKY/WX    TMP DP  RH WIND       PRES   REMARKS
THOMSON        CLEAR     58  55  91 NW5       29.97F FOG
AUGUSTA-BUSH   CLEAR     62  58  86 W8        29.91F
AUGUSTA-DANIEL CLEAR     64  56  75 VRB3      29.92S
SWAINSBORO     FAIR      61  59  94 MISG      29.93F
VIDALIA        CLEAR     63  57  82 NW5       29.93F
EASTMAN        FAIR      60  48  64 NW6       29.98S
HAZLEHURST     FAIR      64  52  65 NW3       29.93S
ALMA           MOCLDY    66  58  75 NW6       29.93S
WAYCROSS       CLEAR     66  60  79 NW6       29.93S
JESUP          NOT AVBL
BAXLEY         FAIR      63  55  77 NW6       29.93S
BRUNSWICK      CLOUDY    72  70  94 SW9       29.91S
SAINT SIMONS   CLEAR     74  73  97 SW14      29.90F

$$

SCZ027-028-034-036>038-045-046-048>050-GAZ119-141-240500-
...LAKE AND SUPPLEMENTAL COASTAL OBSERVATIONS...

STATION/POSITION TIME  TEMP    WIND        PRES    WAVE   SWELL
                       AIR SEA DIR/SP/G            HT/PER HT/PER/DIR
                 (UTC) (F)     (DEG/KT/KT) (MB)    (FT/S) (FT/S/D)
WINYAH BAY       0345   72     240/  9     1012.0S
LAKE MURRAY      0420   65     260/ 11/ 14 1010.8F
ACE BASIN NERRS  0345   71     280/  3     1012.0F
FORT PULASKI     0400   73 74  320/  7/  8 1012.7
SAPELO ISLAND    NOT AVBL

$$

ANZ835-935-AMZ111-154-330-350-352-354-370-450-454-472-240500-
...C-MAN AND BUOY OBSERVATIONS...

STATION/POSITION TIME  TEMP    WIND        PRES    WAVE   SWELL
                       AIR SEA DIR/SP/G            HT/PER HT/PER/DIR
                 (UTC) (F)     (DEG/KT/KT) (MB)    (FT/S) (FT/S/D)
BUOY 41004       0410   75 80  200/ 33/ 47 1010.8
BUOY 41008       0350   77 77  200/ 16/ 17 1011.8F   6/ 7
FOLLY BEACH CMAN 0400   72     270/  4/  7 1012.3S
CAPERS NEARSHORE 0408   69 74  280/ 12/ 17 1010.9R
FRIPP NEARSHORE  0408   73     300/ 12/ 17   N/A


STATION/POSITION TIME  TEMP    WIND        PRES    WAVE   SWELL
                       AIR SEA DIR/SP/G            HT/PER HT/PER/DIR
                 (UTC) (F)     (DEG/KT/KT) (MB)    (FT/S) (FT/S/D)
5E ST. MARYS GA  0400      77                N/A     5/ 6
FRYING PAN BUOY  0410   79 78  180/ 25/ 33 1011.5
BUOY 41025       0350   79 80  170/ 29/ 37 1013.8F  10/ 7
CAPE LOOKOUT NC  0400   76     170/ 23/ 26 1013.1F
BUOY 41002       0350   78 80  150/ 17/ 19 1016.5F   5/ 5
BUOY 41010       NOT AVBL
ST AUGUSTINE FL  0400   74 78  210/  4/  5 1013.6F


$$



USA.gov is the U.S. government's official web portal to all federal, state and local government web resources and services.